FW0637 Weather Reports


Display with metric or nautical units.
time (UTC)temp
F
wind
direction
speed
MPH
gust
MPH
rain 1hr
in
rain 24hr
in
rain mn
in
humidity
%
barometer
mb
20260506073008 0 0.0 0.0 0.00 0.00 0.00 1005.2
20260506071502 0 0.0 0.0 0.00 0.00 0.00 1005.4
20260506061545 0 153 1.0 8.0 0.00 0.00 0.00 92 1005.3
20260506044537 76 187 1.0 9.0 0.00 0.00 0.00 89 1005.5
20260506043036 76 154 2.0 7.0 0.00 0.00 0.00 89 1005.4
20260506041535 76 150 3.0 7.0 0.00 0.00 0.00 89 1005.2
20260506040035 76 138 3.0 9.0 0.00 0.00 0.00 89 1005.1
20260506034534 76 165 2.0 8.0 0.00 0.00 0.00 89 1004.8
20260506033034 77 137 2.0 9.0 0.00 0.00 0.00 88 1004.6
20260506031534 77 127 1.0 9.0 0.00 0.00 0.00 88 1004.5
20260506030037 77 175 2.0 10.0 0.00 0.00 0.00 87 1004.2
20260506024543 78 134 1.0 8.0 0.00 0.00 0.00 87 1004.0
20260506023033 78 124 1.0 7.0 0.00 0.00 0.00 85 1003.8
20260506021532 78 142 1.0 5.0 0.00 0.00 0.00 84 1003.5
20260506020031 79 148 1.0 7.0 0.00 0.00 0.00 83 1003.4
20260506014536 79 111 0.0 0.0 0.00 0.00 0.00 82 1003.2
20260506013034 80 142 0.0 0.0 0.00 0.00 0.00 81 1003.2
20260506011530 81 128 0.0 0.0 0.00 0.00 0.00 80 1003.2
20260506010033 81 136 0.0 1.0 0.00 0.00 0.00 79 1003.1
20260506004532 82 132 0.0 5.0 0.00 0.00 0.00 78 1002.9
20260506003035 82 146 0.0 0.0 0.00 0.00 0.00 77 1002.9
20260506001533 82 166 0.0 0.0 0.00 0.00 0.00 77 1002.7
20260506000027 83 141 0.0 7.0 0.00 0.00 0.00 77 1002.8
20260505234529 83 171 0.0 7.0 0.00 0.00 0.00 75 1002.7
20260505233025 83 167 0.0 7.0 0.00 0.00 0.00 75 1002.5
20260505231523 83 153 0.0 4.0 0.00 0.00 0.00 74 1002.6
20260505230043 84 151 0.0 7.0 0.00 0.00 0.00 74 1002.4
20260505224522 84 146 0.0 8.0 0.00 0.00 0.00 75 1002.3
20260505223020 83 150 0.0 7.0 0.00 0.00 0.00 75 1002.5
20260505221520 83 171 2.0 11.0 0.00 0.00 0.00 74 1002.4
20260505220024 83 190 2.0 8.0 0.00 0.00 0.00 74 1002.6
20260505214516 83 182 0.0 11.0 0.00 0.00 0.00 73 1002.9
20260505213014 84 180 0.0 8.0 0.00 0.00 0.00 73 1003.0
20260505211515 83 302 1.0 9.0 0.00 0.00 0.00 75 1003.1
20260505210015 83 165 2.0 10.0 0.00 0.00 0.00 74 1003.3
20260505204508 83 148 1.0 6.0 0.00 0.00 0.00 76 1003.7
20260505203006 83 174 4.0 9.0 0.00 0.00 0.00 75 1004.1
20260505201511 82 136 3.0 10.0 0.00 0.00 0.00 74 1004.2
20260505200002 81 168 4.0 9.0 0.00 0.00 0.00 78 1004.2
20260505194559 80 144 3.0 9.0 0.00 0.00 0.00 79 1004.4
20260505193059 80 145 2.0 8.0 0.00 0.00 0.00 79 1004.6
20260505191613 80 159 2.0 9.0 0.00 0.00 0.00 80 1004.9
20260505190056 79 153 3.0 10.0 0.00 0.00 0.00 80 1004.9
20260505184555 79 171 3.0 9.0 0.00 0.00 0.00 81 1005.1
20260505183053 79 168 0.0 7.0 0.00 0.00 0.00 82 1005.1
20260505181550 78 267 3.0 8.0 0.00 0.00 0.00 83 1005.3
20260505180100 77 187 2.0 6.0 0.00 0.00 0.00 85 1005.5
20260505174553 76 156 1.0 8.0 0.00 0.00 0.00 87 1005.8
20260505173046 75 219 1.0 8.0 0.00 0.00 0.00 88 1006.0
20260505171539 74 194 1.0 8.0 0.00 0.00 0.00 88 1006.0
20260505170038 74 196 1.0 7.0 0.00 0.00 0.00 89 1006.1
20260505164539 73 213 2.0 8.0 0.00 0.00 0.00 89 1006.1
20260505163032 73 207 2.0 6.0 0.00 0.00 0.00 89 1006.1
20260505161524 72 195 2.0 8.0 0.00 0.00 0.00 90 1006.1
20260505153017 71 149 2.0 7.0 0.00 0.00 0.00 92 1006.0
20260505151515 71 183 4.0 10.0 0.00 0.00 0.00 92 1006.0
20260505124505 70 176 1.0 9.0 0.00 0.00 0.00 92 1004.9
20260505123006 70 179 2.0 11.0 0.00 0.00 0.00 93 1004.7
20260505121600 70 174 2.0 12.0 0.00 0.00 0.00 93 1004.6
20260505120104 69 195 2.0 10.0 0.00 0.00 0.00 93 1004.5
20260505114602 69 175 2.0 10.0 0.00 0.00 0.00 93 1004.2
20260505113057 69 174 2.0 9.0 0.00 0.00 0.00 92 1004.5
20260505111556 69 163 2.0 9.0 0.00 0.00 0.00 92 1004.4
20260505101606 69 163 4.0 11.0 0.00 0.00 0.00 91 1004.6
20260505094551 69 175 4.0 10.0 0.00 0.00 0.00 91 1004.7
20260505093101 69 220 3.0 10.0 0.00 0.00 0.00 91 1004.9
20260505091551 69 129 2.0 11.0 0.00 0.00 0.00 91 1004.6
20260505090049 69 134 3.0 10.0 0.00 0.00 0.00 91 1004.7
20260505084548 69 203 3.0 10.0 0.00 0.00 0.00 91 1005.0
20260505083046 69 179 2.0 10.0 0.00 0.00 0.00 91 1005.1
20260505081558 69 168 3.0 12.0 0.00 0.00 0.00 90 1005.4